Regional Weather Roundup
Issued by NWS

Home | Current Version | Previous Version | Graphics & Text | Print | Product List | Glossary Off
Versions: 1 2 3 4 5 6 7 8 9 10 11 12 13 14 15 16 17 18 19 20 21 22 23 24 25 26 27 28 29 30 31 32 33 34 35 36 37 38 39 40 41 42 43 44 45 46 47 48 49 50

965
ASUS43 KMKX 220600
RWRWI

WISCONSIN REGIONAL WEATHER ROUNDUP
NATIONAL WEATHER SERVICE MILWAUKEE/SULLIVAN WI
100 AM CDT SAT JUL 22 2017

NOTE: "FAIR" INDICATES FEW OR NO CLOUDS BELOW 12,000 FEET WITH NO
SIGNIFICANT WEATHER AND/OR OBSTRUCTIONS TO VISIBILITY.

WIZ001-002-006>008-014>016-023>028-220700-
NORTHWEST WISCONSIN

CITY           SKY/WX    TMP DP  RH WIND       PRES   REMARKS
SUPERIOR ARPT  NOT AVBL
ASHLAND        CLOUDY    61  60  97 CALM      29.76F FOG
6HR MIN TEMP:  61; 6HR MAX TEMP:  75; 6HR PCP:  0.30;

HAYWARD        CLOUDY    68  64  87 VRB5      29.77F
6HR MIN TEMP:  64; 6HR MAX TEMP:  77; 6HR PCP:  1.16;

SIREN          CLOUDY    65  63  93 S7        29.78F
CUMBERLAND     PTCLDY    63  61  94 S3        29.81F
RICE LAKE      PTCLDY    65  64  96 S7        29.81F
6HR MIN TEMP:  65; 6HR MAX TEMP:  76; 6HR PCP:  0.16;

CHETEK         PTCLDY    64  64 100 S6        29.81F
LADYSMITH      CLOUDY    65  64  94 E5        29.83F
EAU CLAIRE     NOT AVBL
MENOMONIE      CLEAR     70  65  83 NE3       29.84F
NEW RICHMOND   PTCLDY    66  63  88 CALM      29.84F
OSCEOLA        DRIZZLE   67  67 100 S6        29.86F
$$

WIZ003>005-009-010-017-018-220700-
NORTH CENTRAL WISCONSIN

CITY           SKY/WX    TMP DP  RH WIND       PRES   REMARKS
MANITOWISH WTR CLOUDY    67  67 100 S7        29.82F
ARBOR VITAE    DRIZZLE   68  66  94 S9        29.82F
WOODRUFF       DRIZZLE   68  66  94 S9        29.82F
RHINELANDER    LGT RAIN  66  65  96 S5        29.86F
6HR MIN TEMP:  64; 6HR MAX TEMP:  77; 6HR PCP: TRACE;

EAGLE RIVER    CLOUDY    67  61  80 S6        29.84F
LAND O LAKES   CLOUDY    70  64  83 S6        29.85F
PHILLIPS       CLOUDY    67  67 100 S9        29.78F
6HR MIN TEMP:  66; 6HR MAX TEMP:  75; 6HR PCP:  0.07;

TOMAHAWK         N/A     64  62  93 CALM      29.89F
MEDFORD        CLOUDY    65  64  97 E6        29.88F
MERRILL        PTCLDY    64  64 100 CALM      29.89S
6HR MIN TEMP:  63; 6HR MAX TEMP:  79;

$$

WIZ029-030-035-036-043>047-220700-
CENTRAL WISCONSIN

CITY           SKY/WX    TMP DP  RH WIND       PRES   REMARKS
WAUSAU         CLOUDY    67  66  97 E5        29.87R
6HR MIN TEMP:  65; 6HR MAX TEMP:  76; 6HR PCP:  0.21;

MOSINEE        CLOUDY    66  64  94 CALM      29.91R
MARSHFIELD     CLOUDY    66  64  93 NW3       29.88R FOG
6HR MIN TEMP:  65; 6HR MAX TEMP:  74;

STEVENS POINT  CLOUDY    64  64 100 NE3       29.88R
WAUPACA        CLOUDY    67  65  95 CALM      29.88R
WAUTOMA        CLOUDY    66  65  96 CALM      29.87S
6HR MIN TEMP:  66; 6HR MAX TEMP:  72;

WISC RAPIDS    CLOUDY    67  67 100 CALM      29.88R FOG
6HR MIN TEMP:  67; 6HR MAX TEMP:  74; 6HR PCP: TRACE;

CAMP DOUGLAS   CLOUDY    68  68 100 CALM      29.86R
$$

WIZ011>013-019>022-031-037>040-048>050-220700-
NORTHEAST WISCONSIN

CITY           SKY/WX    TMP DP  RH WIND       PRES   REMARKS
ANTIGO         MOCLDY    61  60  97 NE3       29.91R
SHAWANO        CLOUDY    70  62  74 SW3       29.87R
6HR MIN TEMP:  67; 6HR MAX TEMP:  80;

OCONTO         PTCLDY    63  62  96 CALM      29.86R
STURGEON BAY     N/A     69  60  73 S13       29.86R
6HR MIN TEMP:  69; 6HR MAX TEMP:  77;

GREEN BAY      LGT RAIN  70  67  90 S6        29.88S
6HR MIN TEMP:  69; 6HR MAX TEMP:  76; 6HR PCP: TRACE;

MANITOWOC      NOT AVBL
APPLETON       CLOUDY    68  57  68 SE6       29.88R
CLINTONVILLE   CLOUDY    70  61  73 S6        29.89R
OSHKOSH        CLOUDY    66  61  84 SE7       29.85F
6HR MIN TEMP:  66; 6HR MAX TEMP:  71;

$$

WIZ032>034-041-042-053>061-220700-
SOUTHWEST WISCONSIN

CITY           SKY/WX    TMP DP  RH WIND       PRES   REMARKS
LA CROSSE      CLOUDY    73  70  90 E7        29.84R
6HR MIN TEMP:  73; 6HR MAX TEMP:  75; 6HR PCP:  0.04;

SPARTA         CLOUDY    67  66  99 E5        29.88R
VIROQUA        CLOUDY    69  69 100 E8        29.86R
BOSCOBEL       CLOUDY    73  71  93 E7        29.80F
6HR MIN TEMP:  72; 6HR MAX TEMP:  74; 6HR PCP:  0.01;

PRAIRIE DU CHI LGT RAIN  71  70  96 E5        29.80S
PLATTEVILLE    CLOUDY    71  71 100 SW7       29.85R
$$

WIZ056-057-062-063-064-067-068-220700-
SOUTH CENTRAL WISCONSIN

CITY           SKY/WX    TMP DP  RH WIND       PRES   REMARKS
REEDSBURG      CLOUDY    68  68 100 NE3       29.85R
BARABOO/DELLS  CLOUDY    67  65  94 E7        29.85S
LONE ROCK      CLOUDY    70  68  93 E6        29.83R
6HR MIN TEMP:  70; 6HR MAX TEMP:  73; 6HR PCP:  0.06;

MINERAL POINT  LGT RAIN  72  72 100 CALM      29.82F
MADISON        CLOUDY    68  66  93 E7        29.84F
6HR MIN TEMP:  68; 6HR MAX TEMP:  72; 6HR PCP:  0.94;

MIDDLETON      CLOUDY    69  69 100 E3        29.85R
WATERTOWN      CLOUDY    65  65 100 NE10      29.86R
MONROE         TSTM      70  70 100 S7        29.82F
JANESVILLE     LGT RAIN  73  73 100 S7        29.80F
$$

WIZ051-052-058>065-066-070>072-220700-
SOUTHEAST WISCONSIN

CITY           SKY/WX    TMP DP  RH WIND       PRES   REMARKS
MILWAUKEE      CLOUDY    70  67  90 N9        29.86R
6HR MIN TEMP:  66; 6HR MAX TEMP:  75; 6HR PCP:  0.29;

WAUKESHA       CLOUDY    63  59  88 NE3       29.89R
MILWAUKEE/TIMM CLOUDY    64  59  82 NE5       29.88R
RACINE         CLOUDY    72  71  97 SE7       29.87R
6HR MIN TEMP:  70; 6HR MAX TEMP:  73;

KENOSHA        CLOUDY    73  71  93 CALM      29.85R
6HR MIN TEMP:  71; 6HR MAX TEMP:  75; 6HR PCP:  0.34;

FOND DU LAC    CLOUDY    65  60  84 SE8       29.86F
6HR MIN TEMP:  65; 6HR MAX TEMP:  71; 6HR PCP:  0.02;

SHEBOYGAN      CLOUDY    64  61  90 CALM      29.87F
6HR MIN TEMP:  63; 6HR MAX TEMP:  75; 6HR PCP:  0.23;

WEST BEND      RAIN      63  63 100 E5        29.88S
JUNEAU         LGT RAIN  64  62  94 E8        29.87S
$$

LSZ147-162-220700-
LAKE SUPERIOR

STATION/POSITION TIME  TEMP    WIND        PRES    WAVE
                       AIR SEA DIR/SP/G            HT/PER
                 (UTC) (F)     (DEG/KT/KT) (MB)    (FT/S)
W MID LAKE BUOY  0450   53 47   50/  8/ 10 1009.5F   1
DEVILS ISLAND    0500   60      30/ 11/ 13 1009.3R
PORT WING        0330   63     120/  7/ 15 1008.5
SAXON HARBOR     0530   65     230/  2/  5 1007.1F
$$

LMZ867-665-643>646-220700-
LAKE MICHIGAN

STATION/POSITION TIME  TEMP    WIND        PRES    WAVE
                       AIR SEA DIR/SP/G            HT/PER
                 (UTC) (F)     (DEG/KT/KT) (MB)    (FT/S)
CHAMBERS ISLAND  0540   71     170/  3/  7 1010.2F
S GREEN BAY BUOY 0530   74 75  130/  8/  8 1010.9F
N MID LAKE BUOY  0450   69 67  180/  8/  8 1011.6F   0
NORTHPORT PIER   0530   69     190/  4/  7 1010.8F
KEWAUNEE LAKESHO 0530   69     180/ 10/ 12 1011.1R
SHEBOYGAN LAKESH 0500   67     170/ 16/ 19 1011.2F
PORT WASHINGTON  0540   64      30/  7/ 12 1012.9R
ATWATER BUOY     0409   69 68   60/ 10/ 12 1011.2F
MILWAUKEE LAKESH 0530   67      40/ 12/ 14   N/A
S MID LAKE BUOY  0450   73 71  100/ 12/ 14 1010.7F   1/ 3
KENOSHA   LAKESH 0500   72     140/ 12/ 16 1009.5
$$

TC  - TEMPERATURE IN CELSIUS
VSB - VISIBILITY IN STATUTE MILES
WCI - WIND CHILL INDEX
HX  - HEAT INDEX





USA.gov is the U.S. government's official web portal to all federal, state and local government web resources and services.